Back to catalog

STARLINK-31040

AliveCommunicationsVLEO
NORAD 58722·PAYLOAD·🇺🇸 United States

Launched Jan 3, 2024 from Vandenberg Space Force Base

Loading…

Next Passes (next 24 hours)

TLE

FreshSource: CelesTrak SupGP

Epoch: Sep 14, 2026, 15:05 UTC

1 58722C 24002T   26257.62895833  .00012253  00000+0  36248-3 0  2573
2 58722  53.1589  69.0416 0001170  97.5439  99.9782 15.34345830    10

Track STARLINK-31040 in real time with AllMySat

Download on the App Store